| time (UTC) | temp C | wind direction | speed KPH | gust KPH | rain 1hr cm | rain 24hr cm | rain mn cm | humidity % | barometer mb |
| 20260503004531 | 15 | 201 | 0.0 | 6.4 | 0.00 | 0.00 | 0.00 | 42 | 1008.4 |
| 20260503003030 | 15 | 172 | 0.0 | 6.4 | 0.00 | 0.00 | 0.00 | 43 | 1008.5 |
| 20260503001528 | 15 | 134 | 0.0 | 8.0 | 0.00 | 0.00 | 0.00 | 40 | 1008.7 |
| 20260503000032 | 16 | 253 | 1.6 | 11.3 | 0.00 | 0.00 | 0.00 | 38 | 1008.8 |
| 20260502234524 | 16 | 198 | 1.6 | 14.5 | 0.00 | 0.00 | 0.00 | 36 | 1009.1 |
| 20260502233023 | 16 | 232 | 0.0 | 12.9 | 0.00 | 0.00 | 0.00 | 37 | 1009.2 |
| 20260502231622 | 16 | 298 | 11.3 | 22.5 | 0.00 | 0.00 | 0.00 | 36 | 1009.3 |
| 20260502230020 | 17 | 257 | 3.2 | 22.5 | 0.00 | 0.00 | 0.00 | 35 | 1009.5 |
| 20260502224516 | 16 | 290 | 8.0 | 17.7 | 0.00 | 0.00 | 0.00 | 35 | 1009.7 |
| 20260502223015 | 16 | 259 | 6.4 | 17.7 | 0.00 | 0.00 | 0.00 | 35 | 1009.9 |
| 20260502221514 | 17 | 259 | 11.3 | 20.9 | 0.00 | 0.00 | 0.00 | 33 | 1010.0 |
| 20260502220013 | 16 | 257 | 3.2 | 19.3 | 0.00 | 0.00 | 0.00 | 34 | 1010.1 |
| 20260502214513 | 17 | 256 | 11.3 | 20.9 | 0.00 | 0.00 | 0.00 | 32 | 1010.2 |
| 20260502213019 | 17 | 284 | 4.8 | 20.9 | 0.00 | 0.00 | 0.00 | 32 | 1010.6 |
| 20260502211505 | 16 | 326 | 9.7 | 17.7 | 0.00 | 0.00 | 0.00 | 31 | 1010.6 |
| 20260502210002 | 16 | 214 | 12.9 | 27.4 | 0.00 | 0.00 | 0.00 | 31 | 1010.8 |
| 20260502204612 | 16 | 278 | 3.2 | 9.7 | 0.00 | 0.00 | 0.00 | 32 | 1011.1 |
| 20260502203114 | 16 | 297 | 3.2 | 12.9 | 0.00 | 0.00 | 0.00 | 36 | 1011.3 |
| 20260502201554 | 16 | 181 | 4.8 | 17.7 | 0.00 | 0.00 | 0.00 | 33 | 1011.7 |
| 20260502200053 | 15 | 117 | 1.6 | 17.7 | 0.00 | 0.00 | 0.00 | 31 | 1012.0 |
| 20260502194554 | 15 | 264 | 6.4 | 16.1 | 0.00 | 0.00 | 0.00 | 31 | 1012.2 |
| 20260502193049 | 15 | 248 | 3.2 | 14.5 | 0.00 | 0.00 | 0.00 | 30 | 1012.5 |
| 20260502191551 | 15 | 256 | 1.6 | 12.9 | 0.00 | 0.00 | 0.00 | 30 | 1012.9 |
| 20260502190044 | 15 | 286 | 3.2 | 14.5 | 0.00 | 0.00 | 0.00 | 33 | 1013.2 |
| 20260502184541 | 14 | 329 | 6.4 | 17.7 | 0.00 | 0.00 | 0.00 | 32 | 1013.5 |
| 20260502183038 | 14 | 300 | 12.9 | 22.5 | 0.00 | 0.00 | 0.00 | 33 | 1013.8 |
| 20260502181553 | 14 | 262 | 4.8 | 14.5 | 0.00 | 0.00 | 0.00 | 34 | 1014.1 |
| 20260502163018 | 12 | 239 | 3.2 | 11.3 | 0.00 | 0.00 | 0.00 | 36 | 1015.9 |
| 20260502161514 | 11 | 231 | 9.7 | 14.5 | 0.00 | 0.00 | 0.00 | 35 | 1016.2 |
| 20260502151510 | 10 | 271 | 4.8 | 17.7 | 0.00 | 0.00 | 0.00 | 37 | 1017.0 |
| 20260502123028 | 3 | 148 | 1.6 | 9.7 | 0.00 | 0.00 | 0.00 | 61 | 1017.8 |
| 20260502121523 | 2 | 206 | 1.6 | 8.0 | 0.00 | 0.00 | 0.00 | 64 | 1017.8 |
| 20260502114521 | 1 | 56 | 0.0 | 1.6 | 0.00 | 0.00 | 0.00 | 67 | 1018.1 |
| 20260502113021 | 1 | 267 | 0.0 | 11.3 | 0.00 | 0.00 | 0.00 | 67 | 1018.1 |
| 20260502111521 | 1 | 149 | 0.0 | 8.0 | 0.00 | 0.00 | 0.00 | 69 | 1017.9 |
| 20260502110020 | 1 | 140 | 0.0 | 9.7 | 0.00 | 0.00 | 0.00 | 70 | 1017.8 |
| 20260502104518 | 1 | 186 | 1.6 | 9.7 | 0.00 | 0.00 | 0.00 | 69 | 1017.9 |
| 20260502103020 | 1 | 148 | 1.6 | 8.0 | 0.00 | 0.00 | 0.00 | 69 | 1017.9 |
| 20260502101514 | 1 | 102 | 0.0 | 8.0 | 0.00 | 0.00 | 0.00 | 69 | 1017.9 |
| 20260502091507 | 1 | 210 | 0.0 | 8.0 | 0.00 | 0.00 | 0.00 | 67 | 1017.9 |
| 20260502080107 | 2 | 180 | 0.0 | 8.0 | 0.00 | 0.00 | 0.00 | 68 | 1018.4 |
| 20260502070049 | 2 | 153 | 0.0 | 4.8 | 0.00 | 0.00 | 0.00 | 67 | 1018.8 |
| 20260502064557 | 2 | 175 | 0.0 | 8.0 | 0.00 | 0.00 | 0.00 | 67 | 1018.9 |
| 20260502063046 | 2 | 155 | 0.0 | 8.0 | 0.00 | 0.00 | 0.00 | 68 | 1018.9 |
| 20260502061545 | 2 | 127 | 0.0 | 8.0 | 0.00 | 0.00 | 0.00 | 66 | 1018.9 |
| 20260502060046 | 2 | 142 | 0.0 | 9.7 | 0.00 | 0.00 | 0.00 | 66 | 1019.0 |
| 20260502054548 | 2 | 210 | 0.0 | 8.0 | 0.00 | 0.00 | 0.00 | 66 | 1018.9 |
| 20260502053039 | 2 | 155 | 0.0 | 4.8 | 0.00 | 0.00 | 0.00 | 67 | 1019.0 |
| 20260502051539 | 2 | 147 | 0.0 | 4.8 | 0.00 | 0.00 | 0.00 | 66 | 1019.0 |
| 20260502050031 | 2 | 145 | 0.0 | 3.2 | 0.00 | 0.00 | 0.00 | 68 | 1019.0 |
| 20260502044536 | 2 | 156 | 0.0 | 4.8 | 0.00 | 0.00 | 0.00 | 67 | 1019.1 |
| 20260502043031 | 2 | 121 | 0.0 | 6.4 | 0.00 | 0.00 | 0.00 | 66 | 1019.1 |
| 20260502041533 | 3 | 134 | 0.0 | 6.4 | 0.00 | 0.00 | 0.00 | 66 | 1019.1 |
| 20260502040039 | 2 | 145 | 0.0 | 4.8 | 0.00 | 0.00 | 0.00 | 67 | 1019.1 |
| 20260502034529 | 2 | 125 | 0.0 | 4.8 | 0.00 | 0.00 | 0.00 | 67 | 1019.1 |
| 20260502033027 | 2 | 136 | 0.0 | 4.8 | 0.00 | 0.00 | 0.00 | 72 | 1019.2 |
| 20260502031527 | 2 | 210 | 0.0 | 1.6 | 0.00 | 0.00 | 0.00 | 69 | 1019.2 |
| 20260502030028 | 3 | 127 | 0.0 | 0.0 | 0.00 | 0.00 | 0.00 | 66 | 1019.2 |
| 20260502024526 | 3 | 107 | 0.0 | 4.8 | 0.00 | 0.00 | 0.00 | 62 | 1019.2 |
| 20260502023025 | 3 | 106 | 0.0 | 3.2 | 0.00 | 0.00 | 0.00 | 61 | 1019.0 |
| 20260502021525 | 4 | 145 | 0.0 | 1.6 | 0.00 | 0.00 | 0.00 | 61 | 1019.0 |
| 20260502020024 | 5 | 124 | 0.0 | 1.6 | 0.00 | 0.00 | 0.00 | 61 | 1018.9 |
| 20260502014538 | 5 | 86 | 0.0 | 0.0 | 0.00 | 0.00 | 0.00 | 54 | 1018.8 |
| 20260502013023 | 6 | 84 | 0.0 | 0.0 | 0.00 | 0.00 | 0.00 | 55 | 1018.6 |
| 20260502011523 | 7 | 86 | 0.0 | 0.0 | 0.00 | 0.00 | 0.00 | 44 | 1018.5 |
| 20260502010022 | 8 | 84 | 0.0 | 0.0 | 0.00 | 0.00 | 0.00 | 43 | 1018.6 |